GLO1667 SBCY-SBGO

Flight info

Callsign GLO1667
Flight time 1h 7m
Altitude 35000
Route KOKLI UZ8 UKBEB
Aircraft B738/M-SDE2E3FGHIRWXY/LB1

Departure

Time 2026-04-27 12:30
Airport Várzea Grande–Marechal Rondon International Airport (SBCY)

Arrival

Time 2026-04-27 13:38
Airport Santa Genoveva International Airport (SBGO)
Time Latitude Longitude Altitude Speed Heading
2026-04-27 12:20 -15.65016 -56.12000 604 ft 0 kts 243°
2026-04-27 12:22 -15.65012 -56.11991 604 ft 3 kts 243°
2026-04-27 12:22 -15.65000 -56.11971 604 ft 4 kts 212°
2026-04-27 12:22 -15.64978 -56.11968 604 ft 4 kts 157°
2026-04-27 12:23 -15.64964 -56.11975 604 ft 1 kts 153°
2026-04-27 12:23 -15.64963 -56.11976 604 ft 0 kts 153°
2026-04-27 12:24 -15.64963 -56.11975 604 ft 0 kts 153°
2026-04-27 12:25 -15.64984 -56.11964 604 ft 6 kts 153°
2026-04-27 12:25 -15.65028 -56.11942 604 ft 7 kts 153°
2026-04-27 12:25 -15.65079 -56.11915 604 ft 10 kts 153°
2026-04-27 12:25 -15.65149 -56.11877 604 ft 12 kts 152°
2026-04-27 12:26 -15.65216 -56.11836 604 ft 9 kts 125°
2026-04-27 12:26 -15.65205 -56.11775 603 ft 9 kts 63°
2026-04-27 12:26 -15.65215 -56.11712 601 ft 11 kts 142°
2026-04-27 12:26 -15.65280 -56.11676 601 ft 10 kts 152°
2026-04-27 12:27 -15.65343 -56.11642 602 ft 10 kts 153°
2026-04-27 12:27 -15.65405 -56.11609 601 ft 10 kts 153°
2026-04-27 12:27 -15.65479 -56.11572 600 ft 16 kts 154°
2026-04-27 12:27 -15.65606 -56.11504 600 ft 25 kts 153°
2026-04-27 12:28 -15.65783 -56.11409 598 ft 31 kts 153°
2026-04-27 12:28 -15.65973 -56.11308 599 ft 30 kts 153°
2026-04-27 12:28 -15.66100 -56.11241 598 ft 15 kts 153°
2026-04-27 12:28 -15.66164 -56.11183 599 ft 9 kts 120°
2026-04-27 12:29 -15.66202 -56.11160 600 ft 6 kts 209°
2026-04-27 12:29 -15.66200 -56.11184 599 ft 4 kts 334°
2026-04-27 12:29 -15.66168 -56.11204 599 ft 11 kts 329°
2026-04-27 12:29 -15.65945 -56.11324 598 ft 73 kts 333°
2026-04-27 12:30 -15.65271 -56.11682 601 ft 141 kts 333°
2026-04-27 12:30 -15.64306 -56.12198 1005 ft 162 kts 333°
2026-04-27 12:30 -15.63288 -56.12742 1767 ft 167 kts 333°
2026-04-27 12:30 -15.62241 -56.13298 2477 ft 175 kts 333°
2026-04-27 12:31 -15.61067 -56.13922 2785 ft 205 kts 333°
2026-04-27 12:31 -15.59714 -56.14639 2992 ft 230 kts 336°
2026-04-27 12:31 -15.58079 -56.14898 3141 ft 253 kts 12°
2026-04-27 12:31 -15.56542 -56.13959 3566 ft 267 kts 51°
2026-04-27 12:32 -15.55855 -56.12196 4372 ft 269 kts 86°
2026-04-27 12:32 -15.56184 -56.10297 5224 ft 271 kts 105°
2026-04-27 12:32 -15.56568 -56.08389 5739 ft 268 kts 94°
2026-04-27 12:32 -15.56411 -56.06467 6367 ft 271 kts 73°
2026-04-27 12:33 -15.55501 -56.04734 7075 ft 277 kts 55°
2026-04-27 12:33 -15.54446 -56.03062 7946 ft 278 kts 59°
2026-04-27 12:33 -15.53487 -56.01341 8770 ft 281 kts 61°
2026-04-27 12:33 -15.52529 -55.99528 9596 ft 285 kts 63°
2026-04-27 12:34 -15.52045 -55.97562 10263 ft 294 kts 91°
2026-04-27 12:34 -15.52579 -55.95444 10509 ft 319 kts 116°
2026-04-27 12:34 -15.53684 -55.93368 10892 ft 336 kts 119°
2026-04-27 12:34 -15.54867 -55.91251 11535 ft 342 kts 120°
2026-04-27 12:35 -15.56090 -55.89084 12334 ft 345 kts 120°
2026-04-27 12:35 -15.57286 -55.86960 13124 ft 348 kts 120°
2026-04-27 12:35 -15.58506 -55.84779 13898 ft 352 kts 120°
2026-04-27 12:35 -15.59733 -55.82572 14663 ft 355 kts 120°
2026-04-27 12:36 -15.60970 -55.80336 15389 ft 360 kts 120°
2026-04-27 12:36 -15.62218 -55.78073 16134 ft 363 kts 120°
2026-04-27 12:36 -15.63477 -55.75784 16845 ft 367 kts 120°
2026-04-27 12:36 -15.64747 -55.73471 17524 ft 371 kts 120°
2026-04-27 12:37 -15.66031 -55.71133 18163 ft 375 kts 120°
2026-04-27 12:37 -15.67328 -55.68768 18802 ft 379 kts 120°
2026-04-27 12:37 -15.68637 -55.66380 19444 ft 382 kts 120°
2026-04-27 12:37 -15.69959 -55.63969 20038 ft 386 kts 120°
2026-04-27 12:38 -15.71292 -55.61535 20619 ft 390 kts 120°
2026-04-27 12:38 -15.72639 -55.59076 21185 ft 394 kts 120°
2026-04-27 12:38 -15.73997 -55.56596 21765 ft 397 kts 120°
2026-04-27 12:38 -15.75366 -55.54095 22293 ft 400 kts 120°
2026-04-27 12:39 -15.76749 -55.51568 22789 ft 404 kts 121°
2026-04-27 12:39 -15.78143 -55.49020 23297 ft 407 kts 120°
2026-04-27 12:39 -15.79543 -55.46459 23789 ft 410 kts 121°
2026-04-27 12:39 -15.80955 -55.43878 24243 ft 413 kts 121°
2026-04-27 12:40 -15.82379 -55.41271 24668 ft 416 kts 120°
2026-04-27 12:40 -15.83811 -55.38650 25142 ft 418 kts 120°
2026-04-27 12:40 -15.85249 -55.36015 25603 ft 420 kts 120°
2026-04-27 12:40 -15.86694 -55.33368 26046 ft 422 kts 120°
2026-04-27 12:41 -15.88144 -55.30709 26497 ft 424 kts 119°
2026-04-27 12:41 -15.89602 -55.28036 26894 ft 427 kts 119°
2026-04-27 12:41 -15.91068 -55.25346 27296 ft 429 kts 119°
2026-04-27 12:41 -15.92539 -55.22646 27684 ft 431 kts 119°
2026-04-27 12:42 -15.94017 -55.19934 28064 ft 432 kts 118°
2026-04-27 12:42 -15.95483 -55.17241 28441 ft 434 kts 118°
2026-04-27 12:42 -15.96991 -55.14466 28781 ft 436 kts 117°
2026-04-27 12:42 -15.98230 -55.11635 29101 ft 437 kts 109°
2026-04-27 12:43 -15.99217 -55.08646 29451 ft 438 kts 107°
2026-04-27 12:43 -16.00147 -55.05579 29766 ft 441 kts 106°
2026-04-27 12:43 -16.01045 -55.02573 30070 ft 442 kts 106°
2026-04-27 12:43 -16.01984 -54.99474 30360 ft 445 kts 106°
2026-04-27 12:44 -16.02931 -54.96408 30641 ft 447 kts 107°
2026-04-27 12:44 -16.03885 -54.93376 31015 ft 447 kts 107°
2026-04-27 12:44 -16.04858 -54.90316 31453 ft 445 kts 107°
2026-04-27 12:44 -16.05833 -54.87266 31875 ft 444 kts 107°
2026-04-27 12:45 -16.06808 -54.84224 32278 ft 444 kts 107°
2026-04-27 12:45 -16.07782 -54.81183 32656 ft 443 kts 107°
2026-04-27 12:45 -16.08753 -54.78145 33041 ft 442 kts 107°
2026-04-27 12:45 -16.09720 -54.75116 33480 ft 440 kts 107°
2026-04-27 12:46 -16.10683 -54.72099 33897 ft 439 kts 107°
2026-04-27 12:46 -16.11644 -54.69085 34246 ft 439 kts 106°
2026-04-27 12:46 -16.12604 -54.66073 34563 ft 440 kts 107°
2026-04-27 12:46 -16.13564 -54.63058 34944 ft 439 kts 107°
2026-04-27 12:47 -16.14529 -54.60025 34969 ft 445 kts 107°
2026-04-27 12:47 -16.16494 -54.53842 34995 ft 454 kts 107°
2026-04-27 12:48 -16.18471 -54.47622 34987 ft 452 kts 107°
2026-04-27 12:48 -16.20439 -54.41423 34987 ft 450 kts 107°
2026-04-27 12:49 -16.22397 -54.35250 35035 ft 448 kts 107°
2026-04-27 12:49 -16.24614 -54.29191 35039 ft 448 kts 110°
2026-04-27 12:50 -16.27020 -54.23208 35039 ft 448 kts 111°
2026-04-27 12:50 -16.29408 -54.17229 35050 ft 447 kts 110°
2026-04-27 12:51 -16.31765 -54.11244 35066 ft 447 kts 110°
2026-04-27 12:51 -16.34106 -54.05257 35075 ft 447 kts 110°
2026-04-27 12:52 -16.36449 -53.99259 35087 ft 447 kts 110°
2026-04-27 12:52 -16.38792 -53.93253 35088 ft 448 kts 110°
2026-04-27 12:53 -16.42314 -53.84220 35085 ft 449 kts 110°
2026-04-27 12:53 -16.44666 -53.78183 35088 ft 450 kts 110°
2026-04-27 12:54 -16.47021 -53.72133 35088 ft 451 kts 110°
2026-04-27 12:54 -16.49378 -53.66069 35080 ft 452 kts 110°
2026-04-27 12:55 -16.51734 -53.60000 35081 ft 452 kts 110°
2026-04-27 12:55 -16.54082 -53.53917 35076 ft 452 kts 110°
2026-04-27 12:56 -16.56424 -53.47832 35083 ft 453 kts 110°
2026-04-27 12:56 -16.58752 -53.41778 35083 ft 453 kts 110°
2026-04-27 12:57 -16.61094 -53.35684 35087 ft 453 kts 110°
2026-04-27 12:57 -16.63452 -53.29540 35077 ft 453 kts 110°
2026-04-27 12:58 -16.65793 -53.23438 35088 ft 453 kts 110°
2026-04-27 12:58 -16.68134 -53.17331 35061 ft 454 kts 110°
2026-04-27 12:59 -16.70458 -53.11261 35063 ft 454 kts 110°
2026-04-27 12:59 -16.72772 -53.05140 35056 ft 454 kts 110°
2026-04-27 13:00 -16.75058 -52.99002 35053 ft 454 kts 110°
2026-04-27 13:00 -16.77339 -52.92865 35055 ft 454 kts 110°
2026-04-27 13:01 -16.79623 -52.86735 35058 ft 453 kts 110°
2026-04-27 13:01 -16.81905 -52.80605 35054 ft 453 kts 110°
2026-04-27 13:02 -16.84187 -52.74466 35061 ft 454 kts 110°
2026-04-27 13:02 -16.86470 -52.68319 35054 ft 454 kts 110°
2026-04-27 13:03 -16.88750 -52.62175 35059 ft 454 kts 110°
2026-04-27 13:03 -16.91028 -52.56029 35058 ft 454 kts 110°
2026-04-27 13:04 -16.93303 -52.49884 35069 ft 454 kts 110°
2026-04-27 13:04 -16.95577 -52.43736 35061 ft 454 kts 110°
2026-04-27 13:05 -16.97849 -52.37588 35081 ft 454 kts 110°
2026-04-27 13:05 -17.00122 -52.31429 35076 ft 454 kts 110°
2026-04-27 13:06 -17.02008 -52.26313 35096 ft 455 kts 110°
2026-04-27 13:06 -17.04669 -52.19089 35082 ft 456 kts 110°
2026-04-27 13:07 -17.06560 -52.13949 35081 ft 456 kts 110°
2026-04-27 13:07 -17.08834 -52.07764 35085 ft 456 kts 110°
2026-04-27 13:08 -17.11106 -52.01572 35079 ft 457 kts 110°
2026-04-27 13:08 -17.12612 -51.95160 35090 ft 455 kts 94°
2026-04-27 13:09 -17.12205 -51.88573 35098 ft 455 kts 82°
2026-04-27 13:09 -17.11254 -51.82026 35086 ft 455 kts 82°
2026-04-27 13:10 -17.10310 -51.75479 35077 ft 455 kts 82°
2026-04-27 13:10 -17.09398 -51.68924 35080 ft 455 kts 82°
2026-04-27 13:11 -17.08501 -51.62377 35082 ft 455 kts 82°
2026-04-27 13:11 -17.07605 -51.55834 35081 ft 455 kts 82°
2026-04-27 13:12 -17.06714 -51.49338 35084 ft 454 kts 82°
2026-04-27 13:12 -17.05814 -51.42806 35090 ft 454 kts 82°
2026-04-27 13:13 -17.04912 -51.36268 35081 ft 454 kts 82°
2026-04-27 13:13 -17.04007 -51.29731 35088 ft 455 kts 82°
2026-04-27 13:14 -17.03100 -51.23193 35082 ft 454 kts 82°
2026-04-27 13:14 -17.02191 -51.16660 34974 ft 455 kts 82°
2026-04-27 13:15 -17.01735 -51.13387 34576 ft 452 kts 82°
2026-04-27 13:15 -17.01285 -51.10162 34073 ft 445 kts 82°
2026-04-27 13:15 -17.00841 -51.06983 33614 ft 439 kts 82°
2026-04-27 13:15 -17.00403 -51.03848 33128 ft 434 kts 82°
2026-04-27 13:16 -16.99968 -51.00738 32644 ft 430 kts 82°
2026-04-27 13:16 -16.99537 -50.97667 32165 ft 425 kts 82°
2026-04-27 13:16 -16.99110 -50.94627 31692 ft 421 kts 82°
2026-04-27 13:16 -16.98687 -50.91613 31223 ft 417 kts 82°
2026-04-27 13:17 -16.98268 -50.88632 30761 ft 413 kts 82°
2026-04-27 13:17 -16.97852 -50.85675 30300 ft 409 kts 82°
2026-04-27 13:17 -16.97440 -50.82748 29846 ft 405 kts 82°
2026-04-27 13:17 -16.97033 -50.79857 29384 ft 401 kts 82°
2026-04-27 13:18 -16.96628 -50.76985 28914 ft 397 kts 82°
2026-04-27 13:18 -16.96227 -50.74149 28453 ft 394 kts 83°
2026-04-27 13:18 -16.95829 -50.71332 27992 ft 390 kts 83°
2026-04-27 13:18 -16.95433 -50.68542 27539 ft 387 kts 83°
2026-04-27 13:19 -16.95041 -50.65777 27087 ft 383 kts 83°
2026-04-27 13:19 -16.94652 -50.63033 26642 ft 380 kts 83°
2026-04-27 13:19 -16.94265 -50.60316 26199 ft 377 kts 83°
2026-04-27 13:19 -16.93882 -50.57617 25759 ft 374 kts 83°
2026-04-27 13:20 -16.93500 -50.54937 25321 ft 371 kts 83°
2026-04-27 13:20 -16.93120 -50.52280 24892 ft 368 kts 83°
2026-04-27 13:20 -16.92744 -50.49645 24463 ft 366 kts 83°
2026-04-27 13:20 -16.92371 -50.47024 24039 ft 364 kts 83°
2026-04-27 13:21 -16.92000 -50.44422 23617 ft 361 kts 83°
2026-04-27 13:21 -16.91630 -50.41837 23195 ft 359 kts 83°
2026-04-27 13:21 -16.91263 -50.39267 22777 ft 356 kts 83°
2026-04-27 13:21 -16.90898 -50.36715 22364 ft 354 kts 83°
2026-04-27 13:22 -16.90534 -50.34181 21950 ft 352 kts 83°
2026-04-27 13:22 -16.90178 -50.31696 21545 ft 349 kts 83°
2026-04-27 13:22 -16.89819 -50.29191 21149 ft 349 kts 83°
2026-04-27 13:22 -16.89459 -50.26687 20744 ft 349 kts 83°
2026-04-27 13:23 -16.89098 -50.24171 20324 ft 354 kts 83°
2026-04-27 13:23 -16.88729 -50.21607 19921 ft 360 kts 83°
2026-04-27 13:23 -16.88357 -50.19022 19491 ft 360 kts 83°
2026-04-27 13:23 -16.87985 -50.16454 19057 ft 356 kts 83°
2026-04-27 13:24 -16.87617 -50.13912 18647 ft 353 kts 83°
2026-04-27 13:24 -16.87253 -50.11391 18238 ft 349 kts 83°
2026-04-27 13:24 -16.86892 -50.08892 17823 ft 347 kts 83°
2026-04-27 13:24 -16.86533 -50.06414 17419 ft 344 kts 83°
2026-04-27 13:25 -16.86177 -50.03958 17019 ft 341 kts 83°
2026-04-27 13:25 -16.85823 -50.01520 16620 ft 338 kts 83°
2026-04-27 13:25 -16.85472 -49.99102 16222 ft 335 kts 83°
2026-04-27 13:25 -16.85125 -49.96710 15832 ft 332 kts 83°
2026-04-27 13:26 -16.84780 -49.94333 15428 ft 330 kts 83°
2026-04-27 13:26 -16.84436 -49.91974 15043 ft 328 kts 83°
2026-04-27 13:26 -16.84095 -49.89631 14655 ft 325 kts 83°
2026-04-27 13:26 -16.83756 -49.87304 14269 ft 323 kts 83°
2026-04-27 13:27 -16.83419 -49.84992 13874 ft 322 kts 83°
2026-04-27 13:27 -16.83083 -49.82693 13492 ft 319 kts 83°
2026-04-27 13:27 -16.82750 -49.80408 13109 ft 317 kts 83°
2026-04-27 13:27 -16.82419 -49.78139 12728 ft 315 kts 83°
2026-04-27 13:28 -16.82089 -49.75884 12348 ft 314 kts 83°
2026-04-27 13:28 -16.81761 -49.73642 11970 ft 311 kts 83°
2026-04-27 13:28 -16.81435 -49.71413 11595 ft 309 kts 82°
2026-04-27 13:28 -16.81109 -49.69204 11212 ft 308 kts 82°
2026-04-27 13:29 -16.80786 -49.66999 10829 ft 307 kts 82°
2026-04-27 13:29 -16.80465 -49.64805 10500 ft 303 kts 82°
2026-04-27 13:29 -16.80152 -49.62671 10379 ft 293 kts 82°
2026-04-27 13:29 -16.79845 -49.60602 10243 ft 284 kts 80°
2026-04-27 13:30 -16.79147 -49.58721 10101 ft 276 kts 56°
2026-04-27 13:30 -16.77896 -49.57232 9866 ft 273 kts 44°
2026-04-27 13:30 -16.76491 -49.55911 9599 ft 271 kts 41°
2026-04-27 13:30 -16.75067 -49.54628 9312 ft 270 kts 41°
2026-04-27 13:31 -16.73669 -49.53366 9022 ft 269 kts 41°
2026-04-27 13:31 -16.72250 -49.52074 8721 ft 267 kts 41°
2026-04-27 13:31 -16.70856 -49.50796 8441 ft 265 kts 42°
2026-04-27 13:31 -16.69503 -49.49539 8160 ft 263 kts 42°
2026-04-27 13:32 -16.68136 -49.48270 7863 ft 263 kts 42°
2026-04-27 13:32 -16.66757 -49.46989 7564 ft 262 kts 42°
2026-04-27 13:32 -16.65418 -49.45743 7299 ft 260 kts 42°
2026-04-27 13:32 -16.64085 -49.44504 7191 ft 256 kts 42°
2026-04-27 13:33 -16.62742 -49.43271 7050 ft 258 kts 38°
2026-04-27 13:33 -16.61243 -49.42292 6947 ft 250 kts 29°
2026-04-27 13:33 -16.59757 -49.41435 6875 ft 239 kts 30°
2026-04-27 13:33 -16.58277 -49.40565 6237 ft 247 kts 30°
2026-04-27 13:34 -16.56795 -49.39654 5810 ft 246 kts 37°
2026-04-27 13:34 -16.55757 -49.38296 5502 ft 238 kts 69°
2026-04-27 13:34 -16.55521 -49.36651 5247 ft 224 kts 94°
2026-04-27 13:34 -16.55875 -49.35149 5102 ft 205 kts 115°
2026-04-27 13:35 -16.56570 -49.33874 4785 ft 200 kts 122°
2026-04-27 13:35 -16.57279 -49.32652 4506 ft 194 kts 121°
2026-04-27 13:35 -16.57942 -49.31473 4250 ft 183 kts 121°
2026-04-27 13:35 -16.58565 -49.30364 4023 ft 172 kts 121°
2026-04-27 13:36 -16.59142 -49.29331 3797 ft 159 kts 120°
2026-04-27 13:36 -16.59676 -49.28359 3591 ft 154 kts 118°
2026-04-27 13:36 -16.60219 -49.27404 3395 ft 153 kts 119°
2026-04-27 13:36 -16.60762 -49.26441 3187 ft 154 kts 119°
2026-04-27 13:37 -16.61301 -49.25485 2992 ft 153 kts 120°
2026-04-27 13:37 -16.61833 -49.24531 2815 ft 151 kts 120°
2026-04-27 13:37 -16.62369 -49.23585 2628 ft 150 kts 121°
2026-04-27 13:37 -16.62890 -49.22648 2461 ft 146 kts 120°
2026-04-27 13:38 -16.63338 -49.21854 2453 ft 98 kts 121°
2026-04-27 13:38 -16.63561 -49.21457 2459 ft 23 kts 120°
2026-04-27 13:38 -16.63640 -49.21314 2466 ft 22 kts 119°
2026-04-27 13:38 -16.63714 -49.21181 2463 ft 8 kts 120°
2026-04-27 13:39 -16.63739 -49.21131 2461 ft 8 kts 110°
2026-04-27 13:39 -16.63714 -49.21089 2460 ft 8 kts 35°
2026-04-27 13:39 -16.63665 -49.21054 2465 ft 9 kts 29°
2026-04-27 13:39 -16.63606 -49.21038 2461 ft 9 kts 338°
2026-04-27 13:40 -16.63572 -49.21095 2463 ft 12 kts 297°
2026-04-27 13:40 -16.63523 -49.21188 2461 ft 17 kts 301°
2026-04-27 13:40 -16.63447 -49.21321 2460 ft 25 kts 300°
2026-04-27 13:40 -16.63350 -49.21494 2455 ft 29 kts 300°
2026-04-27 13:41 -16.63243 -49.21684 2451 ft 31 kts 300°
2026-04-27 13:41 -16.63134 -49.21878 2445 ft 31 kts 300°
2026-04-27 13:41 -16.63029 -49.22066 2447 ft 29 kts 300°
2026-04-27 13:41 -16.62977 -49.22153 2449 ft 2 kts 316°
2026-04-27 13:42 -16.62973 -49.22171 2453 ft 2 kts 290°
2026-04-27 13:42 -16.62970 -49.22161 2446 ft 3 kts 110°
2026-04-27 13:42 -16.62987 -49.22115 2448 ft 11 kts 110°
2026-04-27 13:42 -16.62989 -49.22004 2448 ft 18 kts 79°
2026-04-27 13:43 -16.62961 -49.21882 2451 ft 17 kts 76°
2026-04-27 13:43 -16.62936 -49.21763 2460 ft 16 kts 78°
2026-04-27 13:43 -16.62918 -49.21661 2461 ft 11 kts 91°
2026-04-27 13:43 -16.62970 -49.21612 2465 ft 7 kts 154°
2026-04-27 13:44 -16.62976 -49.21610 2461 ft 0 kts 154°
2026-04-27 13:44 -16.62980 -49.21607 2461 ft 2 kts 154°
2026-04-27 13:44 -16.62999 -49.21595 2463 ft 4 kts 127°
2026-04-27 13:44 -16.62992 -49.21567 2463 ft 4 kts 66°
2026-04-27 13:45 -16.62981 -49.21544 2461 ft 2 kts 64°
2026-04-27 13:45 -16.62975 -49.21530 2461 ft 0 kts 64°
2026-04-27 13:45 -16.62975 -49.21531 2461 ft 0 kts 64°